TimeAKDT,TemperatureF,Dew PointF,Humidity,Sea Level PressureIn,VisibilityMPH,Wind Direction,Wind SpeedMPH,Gust SpeedMPH,PrecipitationIn,Events,Conditions,WindDirDegrees,DateUTC
12:01 AM,30.2,30.2,100,30.04,1.0,North,16.1,26.5,0.00,Snow,Light Snow,10,2012-10-18 08:01:00
12:53 AM,30.0,28.9,96,30.05,1.2,North,20.7,28.8,0.00,Snow,Light Snow,360,2012-10-18 08:53:00
1:10 AM,30.2,28.4,93,30.05,2.0,North,18.4,-,0.00,Snow,Light Snow,360,2012-10-18 09:10:00
1:19 AM,30.2,28.4,93,30.06,2.5,North,16.1,26.5,0.00,Snow,Light Snow,360,2012-10-18 09:19:00
1:31 AM,30.2,28.4,93,30.06,1.5,North,17.3,27.6,0.00,Snow,Light Snow,360,2012-10-18 09:31:00
1:53 AM,30.0,28.9,96,30.07,2.5,North,15.0,25.3,0.00,Snow,Light Snow,10,2012-10-18 09:53:00
2:15 AM,28.4,28.4,100,30.07,1.5,North,17.3,-,0.00,Snow,Light Snow,360,2012-10-18 10:15:00
2:53 AM,28.9,28.0,96,30.08,1.5,North,16.1,24.2,0.00,Snow,Light Snow,360,2012-10-18 10:53:00
3:11 AM,28.4,28.4,100,30.08,2.5,North,15.0,-,0.00,Snow,Light Snow,360,2012-10-18 11:11:00
3:29 AM,30.2,28.4,93,30.08,2.5,North,13.8,-,0.00,Snow,Light Snow,360,2012-10-18 11:29:00
3:44 AM,30.2,28.4,93,30.09,3.0,North,15.0,-,0.00,Snow,Light Snow,10,2012-10-18 11:44:00
3:53 AM,30.0,28.9,96,30.09,3.0,North,15.0,-,0.00,Snow,Light Snow,360,2012-10-18 11:53:00
4:12 AM,30.2,28.4,93,30.09,2.5,North,15.0,-,0.00,Snow,Light Snow,10,2012-10-18 12:12:00
4:19 AM,30.2,28.4,93,30.10,2.5,North,13.8,-,0.00,Snow,Light Snow,10,2012-10-18 12:19:00
4:27 AM,30.2,28.4,93,30.10,2.5,North,12.7,-,0.00,Snow,Light Snow,360,2012-10-18 12:27:00
4:36 AM,30.2,30.2,100,30.10,3.0,North,11.5,-,0.00,Snow,Light Snow,10,2012-10-18 12:36:00
4:41 AM,30.2,30.2,100,30.10,2.5,North,10.4,-,0.00,Snow,Light Snow,10,2012-10-18 12:41:00
4:53 AM,30.0,30.0,100,30.11,3.0,North,9.2,-,0.00,Snow,Light Snow,10,2012-10-18 12:53:00
5:03 AM,30.2,30.2,100,30.11,4.0,North,8.1,-,0.00,Snow,Light Snow,360,2012-10-18 13:03:00
5:13 AM,30.2,30.2,100,30.11,4.0,North,8.1,-,0.00,Snow,Light Snow,360,2012-10-18 13:13:00
5:32 AM,30.2,30.2,100,30.11,1.8,NNE,9.2,-,0.00,Snow,Light Snow,20,2012-10-18 13:32:00
5:38 AM,30.2,30.2,100,30.11,1.8,North,8.1,-,0.00,Snow,Light Snow,10,2012-10-18 13:38:00
5:45 AM,30.2,30.2,100,30.12,2.5,North,6.9,-,0.00,Snow,Light Snow,10,2012-10-18 13:45:00
5:53 AM,30.0,30.0,100,30.12,2.0,NNE,8.1,-,0.00,Snow,Light Snow,20,2012-10-18 13:53:00
6:02 AM,30.2,30.2,100,30.12,2.0,NNE,8.1,-,0.00,Snow,Light Snow,20,2012-10-18 14:02:00
6:19 AM,30.2,30.2,100,30.12,2.5,NNE,6.9,-,0.00,Snow,Light Snow,20,2012-10-18 14:19:00
6:28 AM,30.2,30.2,100,30.13,4.0,North,5.8,-,0.00,Snow,Light Snow,10,2012-10-18 14:28:00
6:53 AM,28.9,28.9,100,30.14,4.0,North,6.9,-,0.00,Snow,Light Snow,360,2012-10-18 14:53:00
7:06 AM,28.4,28.4,100,30.14,6.0,North,6.9,-,0.00,Snow,Light Snow,350,2012-10-18 15:06:00
7:27 AM,28.4,28.4,100,30.14,3.0,NNW,8.1,-,0.00,Snow,Light Snow,340,2012-10-18 15:27:00
7:43 AM,28.4,28.4,100,30.14,8.0,North,9.2,-,0.00,Snow,Light Snow,350,2012-10-18 15:43:00
7:53 AM,28.9,28.9,100,30.15,9.0,North,10.4,-,0.00,Snow,Light Snow,360,2012-10-18 15:53:00
8:14 AM,28.4,28.4,100,30.15,3.0,North,9.2,-,0.00,Snow,Light Snow,350,2012-10-18 16:14:00
8:40 AM,28.4,28.4,100,30.16,3.0,North,10.4,-,0.00,Snow,Light Snow,350,2012-10-18 16:40:00
8:53 AM,28.9,28.9,100,30.17,3.0,North,9.2,-,0.00,Snow,Light Snow,360,2012-10-18 16:53:00
9:01 AM,28.4,28.4,100,30.16,2.0,North,10.4,-,0.00,Snow,Light Snow,360,2012-10-18 17:01:00
9:09 AM,28.4,28.4,100,30.16,2.5,North,12.7,-,0.00,Snow,Light Snow,360,2012-10-18 17:09:00
9:20 AM,28.4,28.4,100,30.17,3.0,North,10.4,-,0.00,Snow,Light Snow,360,2012-10-18 17:20:00
9:53 AM,28.9,28.0,96,30.18,7.0,North,9.2,-,0.00,Snow,Light Snow,360,2012-10-18 17:53:00
10:16 AM,28.4,26.6,93,30.18,5.0,North,10.4,-,0.00,Snow,Light Snow,350,2012-10-18 18:16:00
10:36 AM,28.4,26.6,93,30.18,4.0,NNW,10.4,-,0.00,Snow,Light Snow,340,2012-10-18 18:36:00
10:50 AM,28.4,26.6,93,30.19,9.0,NNW,8.1,-,0.00,,Overcast,340,2012-10-18 18:50:00
10:53 AM,28.9,27.0,92,30.19,10.0,NNW,8.1,-,0.00,,Overcast,340,2012-10-18 18:53:00
11:42 AM,30.2,28.4,93,30.20,10.0,NNW,5.8,-,0.00,,Overcast,340,2012-10-18 19:42:00
11:53 AM,30.0,28.0,92,30.20,10.0,NNW,5.8,-,0.00,,Overcast,340,2012-10-18 19:53:00
12:28 PM,30.2,28.4,93,30.21,7.0,North,6.9,-,0.00,Snow,Light Snow,350,2012-10-18 20:28:00
12:53 PM,30.0,28.0,92,30.21,5.0,NNW,6.9,-,0.00,Snow,Light Snow,340,2012-10-18 20:53:00
1:25 PM,28.4,28.4,100,30.21,2.5,NNW,5.8,-,0.00,Snow,Light Snow,330,2012-10-18 21:25:00
1:33 PM,28.4,28.4,100,30.21,4.0,NNW,5.8,-,0.00,Snow,Light Snow,330,2012-10-18 21:33:00
1:50 PM,30.2,28.4,93,30.22,2.5,NNW,6.9,-,0.00,Snow,Light Snow,330,2012-10-18 21:50:00
1:53 PM,30.0,28.0,92,30.22,3.0,NNW,6.9,-,0.00,Snow,Light Snow,330,2012-10-18 21:53:00
2:32 PM,28.4,28.4,100,30.22,8.0,NNW,8.1,-,0.00,Snow,Light Snow,340,2012-10-18 22:32:00
2:53 PM,28.9,28.0,96,30.23,5.0,NNW,8.1,-,0.00,Snow,Light Snow,330,2012-10-18 22:53:00
3:04 PM,28.4,28.4,100,30.23,4.0,NNW,6.9,-,0.00,,Overcast,330,2012-10-18 23:04:00
3:35 PM,28.4,26.6,93,30.23,10.0,NW,8.1,-,0.00,,Overcast,320,2012-10-18 23:35:00
3:53 PM,28.0,27.0,96,30.24,8.0,NW,8.1,-,0.00,,Overcast,310,2012-10-18 23:53:00
4:08 PM,28.4,26.6,93,30.23,1.8,NW,8.1,-,0.00,Snow,Light Snow,310,2012-10-19 00:08:00
4:23 PM,28.4,26.6,93,30.24,2.5,NW,6.9,-,0.00,Snow,Light Snow,310,2012-10-19 00:23:00
4:32 PM,26.6,26.6,100,30.24,4.0,NW,9.2,-,0.00,Snow,Light Snow,310,2012-10-19 00:32:00
4:44 PM,26.6,24.8,93,30.24,8.0,NW,8.1,-,0.00,Snow,Light Snow,320,2012-10-19 00:44:00
4:53 PM,27.0,25.0,92,30.25,10.0,NW,8.1,-,0.00,,Overcast,320,2012-10-19 00:53:00
5:08 PM,26.6,24.8,93,30.24,1.5,NW,8.1,-,0.00,Snow,Light Snow,310,2012-10-19 01:08:00
5:17 PM,26.6,24.8,93,30.24,0.5,WNW,6.9,-,0.00,Fog-Snow,Snow,300,2012-10-19 01:17:00
5:33 PM,26.6,24.8,93,30.25,0.5,NW,6.9,-,0.00,Fog-Snow,Snow,310,2012-10-19 01:33:00
5:43 PM,26.6,24.8,93,30.25,1.0,WNW,6.9,-,0.00,Snow,Light Snow,300,2012-10-19 01:43:00
5:53 PM,26.1,25.0,96,30.25,2.0,WNW,5.8,-,0.00,Snow,Light Snow,300,2012-10-19 01:53:00
6:02 PM,26.6,24.8,93,30.25,6.0,WNW,6.9,-,0.00,Snow,Light Snow,300,2012-10-19 02:02:00
6:53 PM,26.1,26.1,100,30.26,7.0,WNW,3.5,-,0.00,Snow,Light Snow,300,2012-10-19 02:53:00
7:09 PM,26.6,26.6,100,30.25,2.0,West,3.5,-,0.00,Snow,Light Snow,270,2012-10-19 03:09:00
7:30 PM,26.6,26.6,100,30.25,4.0,North,3.5,-,0.00,Snow,Light Snow,350,2012-10-19 03:30:00
7:53 PM,28.0,26.1,92,30.26,5.0,North,3.5,-,0.00,Snow,Light Snow,360,2012-10-19 03:53:00
8:53 PM,27.0,24.1,89,30.26,5.0,ENE,3.5,-,0.00,Snow,Light Snow,60,2012-10-19 04:53:00
9:28 PM,26.6,24.8,93,30.26,4.0,Calm,Calm,-,0.00,Snow,Light Snow,0,2012-10-19 05:28:00
9:53 PM,26.1,24.1,92,30.27,3.0,Calm,Calm,-,0.00,Snow,Light Snow,0,2012-10-19 05:53:00
10:53 PM,25.0,23.0,92,30.27,6.0,Calm,Calm,-,0.00,Snow,Light Snow,0,2012-10-19 06:53:00
11:53 PM,24.1,24.1,100,30.27,5.0,WSW,4.6,-,0.00,Snow,Light Snow,240,2012-10-19 07:53:00